Tracking 32139 objects as of 17-Nov-2025
HD Live streaming from Space Station
objects crossing your sky now

STARLINK-34763

Track STARLINK-34763 now!
10-day predictions
STARLINK-34763 is classified as:


NORAD ID: 65206
Int'l Code: 2025-176J
Perigee: 481.9 km
Apogee: 482.7 km
Inclination: 53.2 °
Period: 94.1 minutes
Semi major axis: 6853 km
RCS: Unknown
Launch date: August 14, 2025
Source: United States (US)
Launch site: AIR FORCE EASTERN TEST RANGE (AFETR)
Your satellite tracking list
Your tracking list is empty




NASA's NSSDC Master Catalog

Two Line Element Set (TLE):
1 65206U 25176J   25320.24335272  .00038286  00000-0  12975-2 0  9993
2 65206  53.1598 319.5110 0000612 105.0304 255.0764 15.30217107 15747
Source of the keplerian elements: AFSPC